When you browse on this site, cookies collect data to enhance your experience and personalize the content and advertising you see.
Visit our Privacy Policy to learn more. By continuing to use the site, you agree to this use of cookies and data.
EN

Hourly Weather Katagoscha

Today, 18 September, Friday

Time Temperature Precipitation Wind Pressure Humidity
00:00 +14°C° 0.5 mm 6 mps 737 mmHg 85%
01:00 +11°C° 0.2 mm 6 mps 737 mmHg 85%
02:00 +10°C° 0.2 mm 6 mps 737 mmHg 85%
03:00 +8°C° 0 mm 5 mps 738 mmHg 86%
04:00 +8°C° 0 mm 5 mps 738 mmHg 85%
05:00 +8°C° 0 mm 5 mps 738 mmHg 85%
06:00 +8°C° 0 mm 5 mps 738 mmHg 84%
07:00 +8°C° 0.4 mm 5 mps 738 mmHg 83%
08:00 +8°C° 0.4 mm 5 mps 738 mmHg 81%
09:00 +9°C° 0 mm 5 mps 739 mmHg 81%
10:00 +10°C° 0.2 mm 5 mps 739 mmHg 76%
11:00 +12°C° 0.2 mm 5 mps 739 mmHg 72%
12:00 +11°C° 0.2 mm 6 mps 739 mmHg 67%
13:00 +13°C° 0.1 mm 6 mps 739 mmHg 65%
14:00 +13°C° 0.1 mm 5 mps 739 mmHg 64%
15:00 +13°C° 0.1 mm 5 mps 739 mmHg 63%
16:00 +12°C° 0 mm 4 mps 739 mmHg 67%
17:00 +12°C° 0 mm 3 mps 739 mmHg 71%
18:00 +12°C° 0 mm 2 mps 739 mmHg 75%
19:00 +10°C° 0 mm 3 mps 739 mmHg 79%
20:00 +9°C° 0 mm 3 mps 740 mmHg 84%
21:00 +8°C° 0 mm 3 mps 740 mmHg 88%
22:00 +8°C° 0 mm 3 mps 740 mmHg 90%
23:00 +8°C° 0 mm 3 mps 740 mmHg 93%

Tomorrow, 19 September, Saturday

Time Temperature Precipitation Wind Pressure Humidity
00:00 +6°C° 0 mm 4 mps 740 mmHg 95%
01:00 +7°C° 0 mm 4 mps 740 mmHg 92%
02:00 +7°C° 0 mm 5 mps 741 mmHg 90%
03:00 +8°C° 0 mm 6 mps 741 mmHg 87%
04:00 +8°C° 0 mm 6 mps 741 mmHg 84%
05:00 +7°C° 0 mm 6 mps 741 mmHg 82%
06:00 +6°C° 0 mm 7 mps 741 mmHg 79%
07:00 +6°C° 0 mm 7 mps 742 mmHg 79%
08:00 +5°C° 0 mm 6 mps 742 mmHg 79%
09:00 +5°C° 0 mm 6 mps 742 mmHg 80%
10:00 +7°C° 0 mm 6 mps 743 mmHg 79%
11:00 +8°C° 0 mm 6 mps 743 mmHg 79%
12:00 +9°C° 0 mm 6 mps 743 mmHg 78%
13:00 +10°C° 0 mm 6 mps 743 mmHg 76%
14:00 +10°C° 0 mm 6 mps 743 mmHg 73%
15:00 +11°C° 0 mm 6 mps 743 mmHg 70%
16:00 +12°C° 0.1 mm 5 mps 743 mmHg 71%
17:00 +12°C° 0.1 mm 5 mps 743 mmHg 72%
18:00 +11°C° 0.1 mm 4 mps 743 mmHg 73%
19:00 +10°C° 0.1 mm 4 mps 743 mmHg 76%
20:00 +10°C° 0.1 mm 4 mps 743 mmHg 78%
21:00 +8°C° 0.1 mm 5 mps 744 mmHg 81%
22:00 +7°C° 0 mm 5 mps 744 mmHg 82%
23:00 +7°C° 0 mm 5 mps 744 mmHg 83%

Day after tomorrow, 20 September, Sunday

Time Temperature Precipitation Wind Pressure Humidity
00:00 +6°C° 0 mm 5 mps 744 mmHg 85%
01:00 +6°C° 0 mm 5 mps 744 mmHg 85%
02:00 +6°C° 0 mm 5 mps 744 mmHg 86%
03:00 +5°C° 0 mm 5 mps 744 mmHg 86%
04:00 +5°C° 0 mm 5 mps 744 mmHg 87%
05:00 +5°C° 0 mm 5 mps 744 mmHg 87%
06:00 +3°C° 0 mm 6 mps 745 mmHg 87%
07:00 +4°C° 0 mm 6 mps 745 mmHg 82%
08:00 +5°C° 0 mm 7 mps 745 mmHg 77%
09:00 +6°C° 0 mm 8 mps 746 mmHg 72%
10:00 +7°C° 0 mm 8 mps 746 mmHg 67%
11:00 +9°C° 0 mm 7 mps 746 mmHg 62%
12:00 +10°C° 0 mm 7 mps 747 mmHg 57%
13:00 +10°C° 0 mm 7 mps 747 mmHg 55%
14:00 +11°C° 0 mm 7 mps 747 mmHg 54%
15:00 +11°C° 0 mm 7 mps 747 mmHg 52%
16:00 +10°C° 0 mm 6 mps 747 mmHg 57%
17:00 +9°C° 0 mm 5 mps 748 mmHg 61%
18:00 +8°C° 0 mm 4 mps 748 mmHg 66%
19:00 +8°C° 0 mm 3 mps 748 mmHg 70%
20:00 +8°C° 0 mm 3 mps 748 mmHg 74%
21:00 +7°C° 0 mm 3 mps 748 mmHg 78%
22:00 +7°C° 0 mm 3 mps 749 mmHg 80%
23:00 +5°C° 0 mm 3 mps 749 mmHg 82%

21 September, Monday

Time Temperature Precipitation Wind Pressure Humidity
00:00 +5°C° 0 mm 3 mps 749 mmHg 84%
01:00 +5°C° 0 mm 4 mps 749 mmHg 86%
02:00 +5°C° 0 mm 4 mps 749 mmHg 87%
03:00 +4°C° 0 mm 4 mps 748 mmHg 88%
04:00 +5°C° 0 mm 4 mps 748 mmHg 87%
05:00 +5°C° 0 mm 4 mps 748 mmHg 87%
06:00 +5°C° 0 mm 5 mps 748 mmHg 86%
07:00 +6°C° 0 mm 5 mps 748 mmHg 81%
08:00 +7°C° 0 mm 6 mps 748 mmHg 76%
09:00 +9°C° 0 mm 6 mps 748 mmHg 70%
10:00 +10°C° 0 mm 7 mps 748 mmHg 67%
11:00 +11°C° 0 mm 7 mps 747 mmHg 63%
12:00 +12°C° 0 mm 7 mps 747 mmHg 59%
13:00 +14°C° 0 mm 7 mps 747 mmHg 60%
14:00 +14°C° 0 mm 7 mps 747 mmHg 60%
15:00 +15°C° 0 mm 7 mps 747 mmHg 60%
16:00 +14°C° 0 mm 7 mps 747 mmHg 64%
17:00 +13°C° 0 mm 6 mps 747 mmHg 69%
18:00 +12°C° 0 mm 5 mps 747 mmHg 73%
19:00 +12°C° 0 mm 5 mps 747 mmHg 75%
20:00 +10°C° 0 mm 5 mps 747 mmHg 77%
21:00 +10°C° 0 mm 5 mps 747 mmHg 79%
22:00 +10°C° 0 mm 5 mps 748 mmHg 81%
23:00 +10°C° 0 mm 4 mps 748 mmHg 84%

22 September, Tuesday

Time Temperature Precipitation Wind Pressure Humidity
00:00 +10°C° 0 mm 4 mps 748 mmHg 86%
01:00 +10°C° 0 mm 4 mps 748 mmHg 89%
02:00 +9°C° 0 mm 3 mps 748 mmHg 92%
03:00 +8°C° 0 mm 3 mps 748 mmHg 95%
04:00 +8°C° 0 mm 3 mps 749 mmHg 95%
05:00 +8°C° 0 mm 2 mps 749 mmHg 95%
06:00 +8°C° 0 mm 2 mps 749 mmHg 96%
07:00 +9°C° 0 mm 2 mps 749 mmHg 92%
08:00 +10°C° 0 mm 3 mps 749 mmHg 88%
09:00 +12°C° 0 mm 3 mps 750 mmHg 84%
10:00 +13°C° 0 mm 3 mps 750 mmHg 78%
11:00 +15°C° 0 mm 4 mps 750 mmHg 72%
12:00 +17°C° 0 mm 4 mps 750 mmHg 66%
13:00 +17°C° 0 mm 5 mps 750 mmHg 65%
14:00 +19°C° 0 mm 5 mps 749 mmHg 63%
15:00 +19°C° 0 mm 5 mps 749 mmHg 61%
16:00 +18°C° 0 mm 4 mps 749 mmHg 66%
17:00 +17°C° 0 mm 4 mps 749 mmHg 71%
18:00 +16°C° 0 mm 3 mps 749 mmHg 75%
19:00 +14°C° 0 mm 4 mps 749 mmHg 78%
20:00 +13°C° 0 mm 4 mps 749 mmHg 81%
21:00 +12°C° 0 mm 4 mps 749 mmHg 84%
22:00 +12°C° 0 mm 4 mps 749 mmHg 85%
23:00 +12°C° 0 mm 4 mps 749 mmHg 86%

23 September, Wednesday

Time Temperature Precipitation Wind Pressure Humidity
00:00 +11°C° 0 mm 4 mps 750 mmHg 87%
01:00 +11°C° 0 mm 4 mps 750 mmHg 87%
02:00 +11°C° 0 mm 4 mps 750 mmHg 86%
03:00 +10°C° 0 mm 4 mps 749 mmHg 86%
04:00 +10°C° 0 mm 4 mps 749 mmHg 84%
05:00 +10°C° 0 mm 4 mps 750 mmHg 82%
06:00 +10°C° 0 mm 4 mps 750 mmHg 80%
07:00 +11°C° 0 mm 4 mps 750 mmHg 74%
08:00 +13°C° 0 mm 5 mps 750 mmHg 68%
09:00 +14°C° 0 mm 5 mps 750 mmHg 62%
10:00 +16°C° 0 mm 5 mps 750 mmHg 58%
11:00 +19°C° 0 mm 5 mps 750 mmHg 53%
12:00 +20°C° 0 mm 6 mps 750 mmHg 48%
13:00 +21°C° 0 mm 6 mps 749 mmHg 47%
14:00 +21°C° 0 mm 5 mps 749 mmHg 46%
15:00 +22°C° 0 mm 5 mps 749 mmHg 45%
16:00 +20°C° 0 mm 5 mps 749 mmHg 50%
17:00 +19°C° 0 mm 4 mps 749 mmHg 55%
18:00 +17°C° 0 mm 4 mps 748 mmHg 60%
19:00 +15°C° 0 mm 4 mps 748 mmHg 60%
20:00 +14°C° 0 mm 4 mps 749 mmHg 61%
21:00 +13°C° 0 mm 4 mps 749 mmHg 62%
22:00 +13°C° 0 mm 4 mps 749 mmHg 63%
23:00 +13°C° 0 mm 3 mps 749 mmHg 63%
Show more